SL-14 DEB

Satellite information

Favourite Embed

Satellite Type and Status

DEBRISIN ORBIT

Key statistics

Satellite SL-14 DEB at a glance.

Uptime

14139

Days in orbit

Revolutions

≈ 14.0

Per day

Orbit

LEO

Low Earth Orbit

Inclination

82.4

Latest

Satellite identification and parameters

Extended collection of information and parameters for SL-14 DEB.

Object identification

Identified? True

Debris? True

Object name: SL-14 DEB

International designator: 1986-101F

Object number (NORAD): 17271

Object ID (CCSDS): 17271

Country: COMMONWEALTH OF INDEPENDENT STATES (CIS)

Current information (Y/N): Y

RCS size: SMALL

Orbital parameters

Period: 102.699 minutes

Inclination: 82.4039 deg

SMA: 7264.459 km

Apoapsis: 904.87 km

Periapsis: 867.778 km

RAAN: 99.1642 deg

Eccentricy: 0.00255298

Argument of periapsis: 242.9676 deg

Mean anomaly: 132.4604 deg

Mean motion: 14.02160967 rev/day

Mean motion (dot): 0.00000867 rev/day2

B* drag term: 0.0005561714 1/REarth

Two-line elements (TLE)

Creation date: Sept. 3, 2025, 2:21 a.m.

Reference frame: TEME

Reference center: EARTH

Epoch: Sept. 2, 2025, 8:11 p.m. UTC

TLE line 0: 0 SL-14 DEB

TLE line 1: 1 17271U 86101F 25245.84115170 .00000867 00000-0 55617-3 0 9997

TLE line 2: 2 17271 82.4039 99.1642 0025530 242.9676 132.4604 14.02160967971652

Live tracking on map

Real-time ground track for satellite SL-14 DEB.

In-orbit conjunctions

A list of the most updated potential collisions computed for object SL-14 DEB.

Target Orbit TCA Probability of collision Miss distance Type
FENGYUN 1C DEB SSO 2024-09-26 00:16:51 0.0001239368 960.0 (m) DEBRIS
FENGYUN 1C DEB SSO 2024-07-31 21:16:48 0.0002097582 103.0 (m) DEBRIS

Associated space launch

Ionospheric research satellite

SL-14 DEB was lifted into orbit during the mission ‘Tsiklon-3 | Ionozond-E’, on board a Tsiklon-3 space rocket.

The launch took place on Dec. 18, 1986, 8 a.m. from 32/2.

For more information about the launch, click the button.

Launch to space Tsiklon-3 | Ionozond-E
Tsiklon-3 | Ionozond-E

Agency: N/A

Status: Launch Successful

Launch date: Dec. 18, 1986, 8 a.m. UTC

Rocket: Tsiklon-3

Launch pad: 32/2

Location: Plesetsk Cosmodrome, Russian Federation

...

Latest news about this satellite

There are no fresh news available about this satellite. Check back as we update our databases every day.


Newsletter sign-up

Weekly statistics, charts and insights to help you stay on top of the space industry.